Location: Audorf
(48.3500°N, 14.0667°E)
Time: 10:24:31
(UTC+00:00)

Daily predictions for brighter satellites

Satellite Brightness Start Highest point End
(mag) Time Altitude Azimuth Time Altitude Azimuth Time Altitude Azimuth
BREEZE M DEB (TANK) 4.0 18:42:49 10° WSW 18:47:05 83° SSE 19:04:44 10° ENE
Cosmos 1821 Rocket 4.3 18:52:00 10° SSE 18:57:48 47° E 19:03:44 10° NNE
MOS 1 4.5 18:52:19 10° SSE 18:57:58 80° WSW 19:03:40 10° NNW
USA 234 3.9 18:51:44 10° E 18:58:02 52° NNE 19:04:19 10° NW
IRIDIUM 106 4.5 18:56:32 10° SSE 19:01:38 57° E 19:06:45 10° N
Cosmos 2366 rocket 4.3 18:56:11 10° SSW 19:02:25 74° W 19:08:38 10° N
ERBS 3.9 18:59:47 10° W 19:02:55 37° NNW 19:06:03 10° NE
Ariane Rocket 3.7 18:59:12 10° S 19:04:11 57° WSW 19:09:11 10° NNW
Cosmos 1818 3.6 18:58:54 10° NW 19:04:24 90° WSW 19:09:52 10° SE
Cosmos 407 Rocket 3.8 19:04:57 10° S 19:10:00 46° ESE 19:15:03 10° NNE
Cosmos 1441 Rocket 3.2 19:06:34 10° S 19:10:17 56° E 19:13:59 10° NNE
Cosmos 1500 Rocket 4.1 19:06:41 10° SSW 19:10:58 62° WNW 19:15:16 10° N
Cosmos 2360 4.3 19:12:42 10° NNW 19:18:28 68° ENE 19:24:08 10° SE
Cosmos 2123 Rocket 4.4 19:12:49 10° N 19:18:49 48° ENE 19:24:49 10° SSE
BREEZE-M DEB (TANK) 4.0 19:14:49 10° WNW 19:20:04 26° SW 19:22:42 10° S
Cosmos 1666 Rocket 3.9 19:18:55 10° SSE 19:23:00 43° E 19:27:07 10° NNE
Resurs 1-3 3.8 19:19:54 10° S 19:24:17 77° WSW 19:28:42 10° NNW
Meteor 1-4 Rocket 3.0 19:22:08 10° N 19:25:28 41° ENE 19:28:16 13° SE
CZ-2C R/B 3.7 19:20:50 10° NNE 19:25:28 74° ESE 19:29:59 10° S
Cosmos 2239 Rocket 4.5 19:19:53 10° S 19:25:56 65° E 19:32:02 10° NNE
SL-16 R/B 3.7 19:25:01 10° N 19:29:38 25° NE 19:34:12 10° E
Cosmos 1140 Rocket 3.6 19:25:04 10° S 19:30:09 53° ESE 19:35:16 10° NNE
CENTAUR R/B 3.7 19:27:49 10° SSE 19:31:47 19° ESE 19:36:09 10° ENE
COSMOS 2406 3.4 19:26:15 10° SSW 19:32:01 80° WNW 19:37:47 10° NNE
Cosmos 1805 Rocket 3.9 19:30:00 10° SSW 19:34:24 73° W 19:38:53 10° N
Cosmos 2369 3.8 19:31:22 10° NNW 19:37:07 79° WSW 19:42:39 11° SSE
Cosmos 2082 Rocket 2.3 19:35:26 10° S 19:40:59 55° ESE 19:46:31 10° NE
SPOT 1/Viking Rocket 4.0 19:37:42 14° SE 19:41:53 47° ENE 19:46:53 10° N
Cosmos 2278 3.7 19:39:49 10° NNW 19:45:34 84° ENE 19:50:18 15° SSE
CZ-2C R/B 3.6 19:41:16 10° N 19:46:15 50° WNW 19:51:15 10° SW
Shenzhou-11 Module 3.8 19:45:25 10° SW 19:46:31 12° SSW 19:46:44 12° SSW
Intercosmos 25 4.0 19:42:33 10° NNW 19:46:49 52° W 19:50:02 10° S
MetOp-B 4.1 19:43:57 11° SSE 19:49:03 82° ENE 19:54:27 10° NNW
Cosmos 389 Rocket 4.4 19:46:37 10° NNW 19:49:37 28° W 19:52:37 10° SSW
FALCON 9 DEB 3.2 19:46:31 10° SW 19:49:57 58° SSE 19:53:25 10° ENE
Cosmos 2322 Rocket 3.5 19:45:52 10° NNW 19:50:44 28° NE 19:54:49 13° E
USA 32 4.3 19:46:50 12° SSE 19:51:25 49° E 19:56:27 10° NNE
Cosmos 2242 Rocket 4.5 19:48:16 10° N 19:52:19 33° ENE 19:54:39 20° ESE
Cosmos 1633 Rocket 3.0 19:50:02 10° S 19:54:26 77° E 19:58:53 10° NNE
Okean 1-7 4.4 19:51:55 10° NNE 19:55:30 24° ENE 19:57:20 18° ESE
OBJECT-B 3.1 19:54:19 10° SSW 19:57:03 24° W 19:59:47 10° NW
IGS 5A 3.4 19:54:58 18° SSE 19:57:58 74° ENE 20:02:07 10° N
Lacrosse 5 2.4 19:53:10 10° NW 19:58:09 52° NNE 20:02:05 16° E
NOSS 3-2 (A) 3.5 19:57:26 10° SSW 20:02:52 49° ESE 20:09:03 10° NE
Cosmos 2360 Rocket 3.9 19:58:58 10° N 20:03:18 22° NE 20:07:25 11° E
Cosmos 1867 3.5 19:58:40 10° SSW 20:04:02 67° ESE 20:09:29 10° NE
USA 267 3.2 19:58:15 10° ENE 20:04:48 69° SE 20:11:19 10° SW
Cosmos 1707 Rocket 4.5 20:01:39 10° NNW 20:05:50 46° W 20:09:58 10° SSW
Meteor 1-20 Rocket 4.4 20:01:22 11° S 20:06:50 59° E 20:12:37 10° NNE
Cosmos 676 Rocket 4.0 20:01:41 10° S 20:06:58 70° ESE 20:12:18 10° NNE
Cosmos 1602 4.4 20:06:25 27° SE 20:07:51 36° E 20:11:29 10° NNE
BREEZE-M DEB (TANK) 1.7 20:07:39 10° W 20:10:12 69° N 20:10:42 42° ENE
NOSS 3-2 (C) 3.9 20:05:10 10° S 20:10:16 35° ESE 20:15:59 10° NE
Terra 2.7 20:08:57 22° ESE 20:11:17 36° ENE 20:15:38 10° N
Cosmos 1980 Rocket 2.4 20:06:58 10° NNW 20:12:38 70° WSW 20:16:37 20° SSE
ATLAS 5 CENTAUR R/B 4.3 20:09:50 10° WNW 20:14:16 22° WSW 20:19:07 10° SSW
Genesis I 3.7 20:11:41 10° NW 20:15:28 52° WSW 20:17:19 27° S
Cosmos 1238 Rocket 2.2 20:14:50 42° SE 20:15:30 53° E 20:18:24 10° NNE
Cosmos 1437 Rocket 3.5 20:12:34 10° N 20:16:07 36° ENE 20:17:12 29° ESE
ERS-1 Rocket 3.0 20:16:10 25° SE 20:19:01 65° ENE 20:24:01 10° N
Cosmos 1470 Rocket 3.5 20:15:47 17° S 20:19:09 78° E 20:23:34 10° NNE
Resurs 01 Rocket 3.1 20:15:23 10° SSW 20:19:21 33° W 20:23:23 10° NNW
deb Kosmos-1763 4.4 20:15:59 10° SSW 20:19:35 65° WNW 20:23:13 10° NNE
Okean 1 3.5 20:15:41 10° N 20:19:41 58° ENE 20:21:16 33° SE
Cosmos 921 Rocket 2.8 20:15:34 10° NNW 20:19:49 87° ENE 20:21:49 30° SSE
Cosmos 1184 Rocket 3.1 20:20:52 17° SSW 20:23:18 65° WNW 20:26:36 10° N
Cosmos 405 Rocket 2.6 20:22:43 35° SSE 20:24:02 58° E 20:27:43 10° NNE
USA 276 2.5 20:21:53 10° WNW 20:25:02 63° N 20:26:24 30° ENE
Meteor 1-19 Rocket 4.2 20:20:23 10° N 20:25:47 64° ENE 20:28:36 28° SSE
Cosmos 1934 Rocket 4.4 20:19:39 10° SSW 20:25:59 68° WNW 20:32:22 10° N
Cosmos 468 Rocket 4.1 20:21:33 10° NNW 20:26:52 69° ENE 20:29:30 30° SE
Cosmos 1697 Rocket 4.2 20:22:14 10° NW 20:27:05 31° WSW 20:31:55 10° SSW
Cosmos 1833 Rocket 3.8 20:22:05 10° SW 20:27:28 46° NW 20:32:54 10° NNE
Cosmos 2333 Rocket 4.3 20:26:18 10° N 20:30:05 17° NE 20:33:50 10° ENE
Cosmos 1862 Rocket 4.3 20:28:25 10° NNW 20:32:45 50° W 20:35:46 18° SSW
GP-B 3.6 20:28:59 10° N 20:33:22 57° W 20:36:51 15° SSW
X-37B 1.2 20:31:35 10° WSW 20:34:11 42° SSW 20:34:11 42° SSW
SPOT 5 2.5 20:33:39 35° SSE 20:35:24 77° ENE 20:39:47 10° NNW
H-2A R/B 4.5 20:31:58 10° N 20:35:54 45° WNW 20:39:51 10° SW
SL-4 R/B 1.9 20:32:30 10° WSW 20:36:24 73° NNW 20:39:36 13° ENE
Cosmos 1741 Rocket 4.2 20:36:36 30° SSE 20:38:51 50° ESE 20:43:57 10° NNE
Cosmos 1954 Rocket 4.3 20:33:35 10° SSW 20:38:53 69° WNW 20:44:13 10° NNE
Spot 2 Rocket 4.3 20:37:06 18° SSW 20:40:46 48° W 20:45:43 10° NNW
USA 234 3.2 20:37:03 27° SE 20:40:52 78° SW 20:47:27 10° NW
Meteor 1-14 Rocket 4.3 20:37:35 26° S 20:40:58 65° E 20:46:52 10° NNE
FAST 4.4 20:40:14 10° N 20:42:48 77° NNE 20:42:48 77° NNE
Cosmos 1515 3.6 20:41:09 10° N 20:45:01 77° E 20:45:49 53° SSE
ATLAS 3B R/B 3.5 20:48:21 26° ESE 20:48:24 26° ESE 20:53:43 10° ENE
SAR-Lupe-2 3.4 20:47:08 10° NNE 20:50:44 90° E 20:51:31 53° SSW
Cosmos 44 3.6 20:50:03 10° NNW 20:54:53 60° NE 20:56:43 37° ESE
Meteor 2-4 Rocket 3.7 20:49:16 10° N 20:54:57 69° ENE 20:57:00 39° SSE
CARTOSAT-1 4.0 20:53:39 33° SSW 20:55:21 57° W 20:59:39 10° NNW
Iridium 4 Rocket 3.4 20:55:21 42° ESE 20:55:48 44° E 20:59:49 10° NNE
Meteor 1-18 Rocket 4.4 20:51:04 10° NNW 20:56:37 68° W 20:59:27 29° S
USA 238 DEB 3.7 20:53:24 10° SW 21:00:03 83° NW 21:07:03 10° NE
USA 238 3.7 20:53:31 10° SW 21:00:10 83° NW 21:07:09 10° NE
Cosmos 1933 Rocket 4.1 20:57:38 23° SSW 21:00:15 57° WNW 21:04:39 10° N
Cosmos 1763 Rocket 3.8 21:04:28 10° NNW 21:09:44 63° WSW 21:11:34 39° S
Cosmos 1869 Rocket 3.5 21:10:00 58° SSE 21:10:47 76° E 21:15:15 10° NNE
Cosmos 1242 Rocket 4.2 21:09:38 10° NNE 21:12:17 23° ENE 21:12:17 23° ENE
SL-16 R/B 2.2 21:08:39 10° NNW 21:14:20 75° WSW 21:16:10 44° S
Lacrosse 4 Rocket 3.9 21:17:36 11° ENE 21:17:36 11° ENE 21:17:50 10° ENE
Cosmos 2100 Rocket 3.9 21:12:39 36° S 21:15:20 81° E 21:21:31 10° N
Cosmos 1703 Rocket 4.4 21:16:38 10° NNW 21:20:46 43° W 21:21:59 34° SW
Cosmos 2219 Rocket 3.6 21:16:17 10° NNW 21:21:12 29° NE 21:23:54 20° E
CENTAUR R/B 2.5 21:15:15 10° SW 21:21:14 88° SE 21:28:26 10° NE
Spot 4 4.4 21:22:05 40° E 21:22:54 44° ENE 21:27:29 10° N
Cosmos 2082 Rocket 4.0 21:20:22 10° WSW 21:25:22 31° NW 21:30:23 10° NNE
FALCON 9 DEB 4.3 21:23:43 10° W 21:27:06 44° NNW 21:28:47 24° NE
Cosmos 2173 Rocket 3.9 21:25:03 38° S 21:27:39 89° W 21:33:48 10° N
Cosmos 1674 Rocket 4.5 21:24:52 10° N 21:28:50 34° ENE 21:28:54 34° ENE
Okean 3 3.3 21:24:57 10° N 21:29:17 88° E 21:29:33 79° SSE
ALOS 2 3.9 21:32:14 27° ENE 21:32:39 28° ENE 21:36:23 10° N
Okean 1-7 4.1 21:29:12 10° NNW 21:33:10 36° W 21:34:12 31° WSW
Cosmos 2237 4.1 21:29:07 10° NNW 21:34:52 82° ENE 21:36:15 54° SE
Cosmos 1725 Rocket 4.1 21:33:23 47° SSE 21:35:01 62° E 21:41:16 10° NNE
Cosmos 2322 Rocket 2.4 21:29:35 10° NNW 21:35:13 64° WSW 21:36:38 48° SSW
SL-27 R/B 3.3 21:38:44 45° NW 21:38:44 45° NW 21:41:37 10° NNE
SL-08 R/B 4.4 21:38:12 50° SSE 21:39:40 68° E 21:45:44 10° NNE
Lacrosse 5 2.3 21:36:17 10° WNW 21:41:07 45° SW 21:41:15 45° SW
Cosmos 1733 Rocket 3.3 21:46:13 55° ENE 21:46:13 55° ENE 21:50:11 10° NNE
Cosmos 2016 Rocket 3.9 21:44:23 47° S 21:46:26 87° E 21:52:51 10° N
Cosmos 1459 Rocket 4.2 21:43:59 34° SSW 21:46:52 67° WNW 21:53:14 10° N
USA 267 3.9 21:41:23 10° NE 21:47:44 56° NNW 21:54:05 10° W
Cosmos 2360 Rocket 2.1 21:42:22 10° NNW 21:48:05 88° WSW 21:49:10 61° SSE
Terra 3.1 21:47:50 27° WSW 21:49:03 31° W 21:53:18 10° NNW
Cosmos 1500 4.3 21:51:07 37° W 21:51:21 37° WNW 21:54:53 10° N
Cosmos 2221 Rocket 3.7 21:48:20 10° NNW 21:52:47 67° W 21:52:58 66° WSW
Thor Agena Rocket 3.5 21:48:03 10° NNE 21:53:06 59° ESE 21:53:15 59° ESE
COSMOS 2428 3.6 21:50:56 10° NNW 21:56:23 42° NE 21:58:12 33° E
Cosmos 2061 Rocket 4.0 21:54:52 46° SSW 21:56:50 80° W 22:03:04 10° N
Cosmos 540 Rocket 3.9 21:52:11 10° NNW 21:57:09 48° WSW 21:57:48 45° SW
ATLAS 5 CENTAUR R/B 2.3 21:55:36 10° NW 21:58:37 72° SW 21:58:55 69° SSW
Meteor 1-11 Rocket 3.7 21:58:34 55° SSW 21:59:52 83° W 22:05:40 10° N
Cosmos 1864 Rocket 4.4 21:58:17 52° S 21:59:58 88° W 22:06:17 10° N
NOSS 3-2 (C) 4.1 21:55:06 10° WSW 22:00:51 56° NW 22:07:31 10° NE
Cosmos 1666 3.3 22:03:20 52° NNW 22:03:20 52° NNW 22:06:28 10° N
Cosmos 841 Rocket 4.2 21:58:37 10° NW 22:03:31 41° WSW 22:04:10 39° WSW
BREEZE-M DEB (TANK) 3.8 22:00:55 10° WNW 22:05:06 87° SSW 22:22:07 10° ESE
Cosmos 1743 4.0 22:10:20 34° NE 22:10:20 34° NE 22:12:54 10° NNE
Cosmos 2084 Rocket 4.4 22:12:58 34° W 22:14:16 46° NW 22:18:28 10° NE
Cosmos 2237 Rocket 3.8 22:09:39 10° NNW 22:14:26 27° NE 22:17:20 18° E
COSMOS 2487 4.2 22:16:13 29° NNE 22:16:13 29° NNE 22:18:01 10° NNE
Cosmos 1908 Rocket 4.4 22:15:54 41° ENE 22:15:54 41° ENE 22:19:18 10° NNE
Cosmos 2333 Rocket 2.4 22:09:44 10° NNW 22:15:30 67° ENE 22:16:34 55° ESE
Cosmos 1271 Rocket 3.6 22:11:46 10° N 22:14:37 44° NNE 22:14:37 44° NNE
SL-4 R/B 3.1 22:12:38 10° WNW 22:15:11 35° NW 22:15:11 35° NW
ERBS 4.4 22:14:16 10° NW 22:17:02 24° NNE 22:17:14 24° NNE
Cosmos 2233 Rocket 3.9 22:18:13 60° S 22:19:30 84° E 22:25:52 10° N
Cosmos 1378 Rocket 3.7 22:19:06 10° N 22:23:11 74° NNW 22:23:11 74° NNW
USA 234 4.4 22:24:24 25° SW 22:24:34 25° SW 22:29:48 10° WNW
Cosmos 1536 3.7 22:25:42 43° WNW 22:25:42 43° WNW 22:29:12 10° N
Cosmos 1066 Rocket 4.3 22:21:01 10° NNW 22:26:38 61° W 22:27:21 56° SW
Okean 2 4.3 22:24:22 10° N 22:27:42 43° NE 22:27:42 43° NE
Helios 1A 3.9 22:31:45 40° ENE 22:31:45 40° ENE 22:35:26 10° N
Cosmos 1378 4.3 22:28:08 10° NNW 22:30:46 43° NNW 22:30:46 43° NNW
Cosmos 1503 Rocket 4.5 22:35:06 49° E 22:35:06 49° E 22:39:56 10° NNE
ATLAS 3B R/B 2.7 22:35:32 36° SW 22:38:28 76° NW 22:45:10 10° NE
Cosmos 44 Rocket 3.5 22:33:39 10° NW 22:38:37 67° NE 22:38:57 65° ENE
Cosmos 1975 Rocket 3.7 22:35:15 10° N 22:39:16 48° ENE 22:39:16 48° ENE
Cosmos 1486 Rocket 3.8 22:40:49 85° SW 22:40:57 88° WNW 22:46:13 10° NNE
SL-24 DEB 4.4 22:36:37 10° N 22:41:04 65° ENE 22:41:04 65° ENE
Cosmos 1707 4.5 22:47:43 10° NNE 22:50:33 27° NE 22:50:33 27° NE
Cosmos 2227 Rocket 4.0 22:53:33 19° E 22:53:33 19° E 22:57:02 10° ENE
Lacrosse 4 Rocket 2.0 22:53:53 56° NNW 22:53:53 56° NNW 22:57:31 10° NNE
Cosmos 1975 3.7 22:54:57 46° NNE 22:54:57 46° NNE 22:57:54 10° NNE
Cosmos 1072 Rocket 4.4 22:54:31 62° SE 22:55:15 68° E 23:01:19 10° NNE
Cosmos 1842 4.2 22:53:05 10° N 22:55:59 47° N 22:55:59 47° N
SL-16 R/B 4.4 22:55:18 10° WNW 22:57:26 12° W 22:58:01 12° WSW
YAOGAN 11 4.4 22:59:08 65° NE 22:59:08 65° NE 23:03:27 10° N
Sich 1 Rocket 4.4 23:02:16 43° ENE 23:02:16 43° ENE 23:05:45 10° NNE
Cosmos 1544 4.5 23:03:45 37° N 23:03:45 37° N 23:06:09 10° N
Cosmos 2322 4.2 22:57:48 10° NW 23:03:02 45° WSW 23:03:02 45° WSW
Cosmos 2219 Rocket 2.3 22:59:57 10° NNW 23:05:34 61° WSW 23:05:36 61° WSW
SL-16 R/B 4.4 23:03:54 11° ESE 23:08:23 24° NE 23:13:13 10° N
ALOS 2 3.8 23:09:38 33° WNW 23:09:38 33° WNW 23:12:56 10° NNW
Meteor 1-21 4.1 23:03:58 10° NNW 23:09:49 89° WSW 23:10:19 75° S
CZ-2D R/B 4.4 23:08:14 10° ENE 23:10:27 12° E 23:11:44 12° E
Cosmos 773 Rocket 4.1 23:05:25 10° NNW 23:10:33 65° ENE 23:10:53 63° E
CENTAUR R/B 4.2 23:07:01 10° W 23:12:51 34° NNW 23:19:38 10° NE
Cosmos 1025 Rocket 3.9 23:10:33 10° N 23:14:16 41° ENE 23:14:16 41° ENE
NOSS 0 Rocket 3.8 23:10:44 10° NNW 23:17:01 89° WSW 23:18:00 66° SSE
Cosmos 968 Rocket 3.9 23:18:42 48° W 23:19:19 51° WNW 23:24:20 10° NNE
CZ-4 R/B 4.3 23:14:38 10° NNE 23:19:22 52° E 23:19:22 52° E
PSLV R/B 4.2 23:15:20 10° NNE 23:19:33 55° ENE 23:19:33 55° ENE
SL-16 R/B 3.6 23:21:03 10° NNW 23:26:13 34° NE 23:29:54 17° ESE
Meteor 1-12 Rocket 4.5 23:28:45 56° SE 23:29:31 60° E 23:35:26 10° NNE
USA 267 4.4 23:24:03 10° ENE 23:30:07 42° N 23:36:10 10° WNW
Cosmos 2360 Rocket 4.2 23:28:08 10° WNW 23:30:55 15° W 23:30:55 15° W
Helios 1B rocket 3.4 23:27:59 10° NNE 23:31:05 40° ENE 23:31:05 40° ENE
Cosmos 1354 Rocket 4.3 23:37:57 56° W 23:38:32 60° WNW 23:43:50 10° NNE
COSMOS 2428 3.5 23:35:22 10° NW 23:40:11 37° W 23:40:11 37° W
Cosmos 1536 Rocket 3.9 23:37:56 10° N 23:41:51 60° NE 23:41:51 60° NE
Timation 2 Rocket 3.8 23:42:46 67° S 23:43:38 83° ESE 23:49:41 10° NNE
Cosmos 2297 Rocket 2.4 23:46:33 54° ESE 23:46:51 55° ESE 23:52:22 10° NE
Cosmos 1980 3.6 23:44:17 10° NNW 23:49:57 72° WSW 23:50:12 70° SW
Cosmos 2219 3.1 23:53:03 67° SSE 23:53:29 71° ESE 23:59:05 10° NNE
Cosmos 2026 Rocket 4.1 23:47:42 10° N 23:53:47 66° ENE 23:55:26 47° SE
